08-04-2022, 00:00:02,    240,    0.2,    2.1,   0.00,   0.00,  999.4,   66.5, -999.0
08-04-2022, 00:00:12,    242,    0.1,    2.1,   0.00,   0.00,  999.3,   66.6, -999.0
08-04-2022, 00:00:22,    257,    0.2,    2.1,   0.00,   0.00,  999.3,   66.5, -999.0
08-04-2022, 00:00:32,    256,    0.0,    2.1,   0.00,   0.00,  999.2,   66.5, -999.0
08-04-2022, 00:00:44,    290,    0.3,    2.0,   0.00,   0.00,  999.3,   66.6, -999.0
08-04-2022, 00:00:51,    290,    0.0,    1.9,   0.00,   0.00,  999.3,   66.5, -999.0
08-04-2022, 00:01:02,    290,    0.0,    2.0,   0.00,   0.00,  999.2,   66.9, -999.0
08-04-2022, 00:01:12,    289,    0.0,    2.1,   0.00,   0.00,  999.2,   66.7, -999.0
08-04-2022, 00:01:21,    288,    0.0,    1.9,   0.00,   0.00,  999.2,   66.7, -999.0
08-04-2022, 00:01:32,    288,    0.0,    2.1,   0.00,   0.00,  999.3,   66.7, -999.0
08-04-2022, 00:01:42,    288,    0.0,    2.1,   0.00,   0.00,  999.2,   66.8, -999.0
08-04-2022, 00:01:51,    288,    0.0,    2.0,   0.00,   0.00,  999.2,   66.7, -999.0
08-04-2022, 00:02:01,    288,    0.0,    2.1,   0.00,   0.00,  999.2,   66.7, -999.0
08-04-2022, 00:02:11,    288,    0.2,    2.1,   0.00,   0.00,  999.3,   67.0, -999.0
08-04-2022, 00:02:21,    275,    2.0,    2.1,   0.00,   0.00,  999.3,   67.3, -999.0
08-04-2022, 00:02:31,    276,    1.1,    2.2,   0.00,   0.00,  999.4,   67.3, -999.0
08-04-2022, 00:02:41,    275,    0.2,    2.1,   0.00,   0.00,  999.3,   67.3, -999.0
08-04-2022, 00:02:51,    246,    0.4,    2.0,   0.00,   0.00,  999.3,   67.3, -999.0
08-04-2022, 00:03:01,    247,    0.7,    2.2,   0.00,   0.00,  999.3,   67.5, -999.0
08-04-2022, 00:03:11,    260,    0.8,    2.1,   0.00,   0.00,  999.3,   67.4, -999.0
08-04-2022, 00:03:21,    234,    0.8,    2.2,   0.00,   0.00,  999.3,   67.5, -999.0
08-04-2022, 00:03:31,    248,    1.7,    2.1,   0.00,   0.00,  999.3,   67.6, -999.0
08-04-2022, 00:03:41,    231,    1.1,    2.2,   0.00,   0.00,  999.3,   67.6, -999.0
08-04-2022, 00:03:51,    231,    0.0,    2.1,   0.00,   0.00,  999.2,   67.2, -999.0
08-04-2022, 00:04:01,    255,    0.4,    2.1,   0.00,   0.00,  999.2,   67.5, -999.0
08-04-2022, 00:04:11,    253,    0.0,    2.1,   0.00,   0.00,  999.2,   67.5, -999.0
08-04-2022, 00:04:21,    253,    0.0,    2.0,   0.00,   0.00,  999.2,   67.5, -999.0
08-04-2022, 00:04:30,    258,    0.5,    2.1,   0.00,   0.00,  999.2,   67.6, -999.0
08-04-2022, 00:04:41,    249,    2.4,    2.2,   0.00,   0.00,  999.3,   67.8, -999.0
08-04-2022, 00:04:51,    275,    0.9,    2.2,   0.00,   0.00,  999.3,   67.8, -999.0
08-04-2022, 00:05:00,    275,    0.1,    2.1,   0.00,   0.00,  999.2,   67.6, -999.0
08-04-2022, 00:05:10,    275,    0.0,    2.1,   0.00,   0.00,  999.1,   67.5, -999.0
08-04-2022, 00:05:21,    266,    0.9,    2.1,   0.00,   0.00,  999.2,   67.8, -999.0
08-04-2022, 00:05:30,    242,    1.2,    2.2,   0.00,   0.00,  999.3,   68.0, -999.0
08-04-2022, 00:05:40,    240,    1.1,    2.3,   0.00,   0.00,  999.3,   68.0, -999.0
08-04-2022, 00:05:50,    239,    0.2,    2.2,   0.00,   0.00,  999.2,   68.0, -999.0
08-04-2022, 00:06:00,    236,    0.0,    2.1,   0.00,   0.00,  999.2,   67.7, -999.0
08-04-2022, 00:06:10,    259,    1.1,    2.2,   0.00,   0.00,  999.3,   68.1, -999.0
08-04-2022, 00:06:20,    273,    0.5,    2.2,   0.00,   0.00,  999.3,   68.1, -999.0
08-04-2022, 00:06:30,    267,    0.3,    2.1,   0.00,   0.00,  999.2,   68.0, -999.0
08-04-2022, 00:06:40,    209,    0.3,    2.1,   0.00,   0.00,  999.3,   68.0, -999.0
08-04-2022, 00:06:50,    193,    1.0,    2.2,   0.00,   0.00,  999.3,   68.3, -999.0
08-04-2022, 00:07:00,    192,    0.5,    2.2,   0.00,   0.00,  999.2,   68.3, -999.0
08-04-2022, 00:07:10,    210,    0.0,    2.2,   0.00,   0.00,  999.2,   68.2, -999.0
08-04-2022, 00:07:20,    210,    0.3,    2.1,   0.00,   0.00,  999.2,   68.1, -999.0
08-04-2022, 00:07:30,    233,    0.4,    2.2,   0.00,   0.00,  999.2,   68.3, -999.0
08-04-2022, 00:07:39,    229,    1.9,    2.3,   0.00,   0.00,  999.3,   68.5, -999.0
08-04-2022, 00:07:50,    229,    0.3,    2.2,   0.00,   0.00,  999.2,   68.2, -999.0
08-04-2022, 00:08:00,    233,    0.3,    2.2,   0.00,   0.00,  999.2,   68.5, -999.0
08-04-2022, 00:08:09,    232,    0.1,    2.2,   0.00,   0.00,  999.2,   68.2, -999.0
08-04-2022, 00:08:20,    232,    0.0,    2.1,   0.00,   0.00,  999.1,   68.0, -999.0
08-04-2022, 00:08:30,    232,    0.0,    2.1,   0.00,   0.00,  999.1,   68.0, -999.0
08-04-2022, 00:08:39,    238,    0.0,    2.1,   0.00,   0.00,  999.1,   68.1, -999.0
08-04-2022, 00:08:49,    270,    0.3,    2.0,   0.00,   0.00,  999.2,   68.4, -999.0
08-04-2022, 00:09:00,    259,    1.6,    2.2,   0.00,   0.00,  999.3,   68.3, -999.0
08-04-2022, 00:09:09,    232,    1.4,    2.2,   0.00,   0.00,  999.3,   68.6, -999.0
08-04-2022, 00:09:19,    225,    0.4,    2.2,   0.00,   0.00,  999.2,   68.4, -999.0
08-04-2022, 00:09:29,    226,    0.0,    2.1,   0.00,   0.00,  999.1,   68.4, -999.0
08-04-2022, 00:09:39,    225,    0.2,    2.2,   0.00,   0.00,  999.2,   68.6, -999.0
08-04-2022, 00:09:49,    229,    0.1,    2.0,   0.00,   0.00,  999.2,   68.4, -999.0
08-04-2022, 00:09:59,    230,    0.3,    2.2,   0.00,   0.00,  999.2,   68.4, -999.0
08-04-2022, 00:10:09,    256,    1.4,    2.2,   0.00,   0.00,  999.3,   68.6, -999.0
08-04-2022, 00:10:19,    256,    0.1,    2.2,   0.00,   0.00,  999.2,   68.3, -999.0
08-04-2022, 00:10:29,    256,    0.0,    2.1,   0.00,   0.00,  999.1,   68.2, -999.0
08-04-2022, 00:10:39,    256,    0.0,    2.1,   0.00,   0.00,  999.1,   68.2, -999.0
08-04-2022, 00:10:49,    254,    0.0,    2.1,   0.00,   0.00,  999.2,   68.2, -999.0
08-04-2022, 00:10:59,    268,    1.3,    2.1,   0.00,   0.00,  999.3,   68.5, -999.0
08-04-2022, 00:11:09,    244,    0.5,    2.1,   0.00,   0.00,  999.2,   68.5, -999.0
08-04-2022, 00:11:18,    250,    2.6,    2.1,   0.00,   0.00,  999.3,   68.7, -999.0
08-04-2022, 00:11:29,    232,    1.1,    2.2,   0.00,   0.00,  999.3,   68.8, -999.0
08-04-2022, 00:11:39,    268,    1.0,    2.2,   0.00,   0.00,  999.3,   68.9, -999.0
08-04-2022, 00:11:48,    267,    0.6,    2.1,   0.00,   0.00,  999.3,   69.0, -999.0
08-04-2022, 00:11:58,    266,    0.0,    2.1,   0.00,   0.00,  999.1,   68.6, -999.0
08-04-2022, 00:12:09,    266,    0.0,    2.1,   0.00,   0.00,  999.1,   68.6, -999.0
08-04-2022, 00:12:18,    239,    1.1,    2.1,   0.00,   0.00,  999.3,   68.9, -999.0
08-04-2022, 00:12:28,    214,    2.3,    2.3,   0.00,   0.00,  999.3,   69.0, -999.0
08-04-2022, 00:12:39,    203,    1.3,    2.2,   0.00,   0.00,  999.3,   69.1, -999.0
08-04-2022, 00:12:48,    303,    0.6,    2.2,   0.00,   0.00,  999.3,   69.1, -999.0
08-04-2022, 00:12:58,    291,    0.4,    2.2,   0.00,   0.00,  999.2,   68.9, -999.0
08-04-2022, 00:13:08,    278,    0.6,    2.1,   0.00,   0.00,  999.2,   69.1, -999.0
08-04-2022, 00:13:18,    278,    0.0,    2.1,   0.00,   0.00,  999.1,   68.8, -999.0
08-04-2022, 00:13:28,    277,    0.0,    2.1,   0.00,   0.00,  999.1,   68.7, -999.0
08-04-2022, 00:13:38,    273,    0.0,    2.1,   0.00,   0.00,  999.2,   68.7, -999.0
08-04-2022, 00:13:48,    273,    0.0,    2.1,   0.00,   0.00,  999.1,   68.6, -999.0
08-04-2022, 00:13:58,    263,    0.0,    2.1,   0.00,   0.00,  999.1,   68.7, -999.0
08-04-2022, 00:14:08,    246,    1.2,    2.1,   0.00,   0.00,  999.2,   68.9, -999.0
08-04-2022, 00:14:18,    259,    1.2,    2.2,   0.00,   0.00,  999.3,   69.1, -999.0
08-04-2022, 00:14:28,    261,    1.2,    2.2,   0.00,   0.00,  999.3,   69.2, -999.0
08-04-2022, 00:14:38,    250,    0.8,    2.1,   0.00,   0.00,  999.3,   69.1, -999.0
08-04-2022, 00:14:48,    248,    0.5,    2.1,   0.00,   0.00,  999.3,   69.2, -999.0
08-04-2022, 00:14:57,    248,    0.0,    2.1,   0.00,   0.00,  999.2,   69.0, -999.0
08-04-2022, 00:15:08,    246,    0.4,    2.1,   0.00,   0.00,  999.3,   69.3, -999.0
08-04-2022, 00:15:18,    246,    0.0,    2.0,   0.00,   0.00,  999.2,   68.9, -999.0
08-04-2022, 00:15:27,    245,    0.5,    2.1,   0.00,   0.00,  999.2,   69.0, -999.0
08-04-2022, 00:15:37,    261,    1.0,    2.2,   0.00,   0.00,  999.3,   69.3, -999.0
08-04-2022, 00:15:48,    258,    0.4,    2.2,   0.00,   0.00,  999.2,   69.1, -999.0
08-04-2022, 00:15:57,    259,    0.4,    2.1,   0.00,   0.00,  999.2,   69.1, -999.0
08-04-2022, 00:16:07,    270,    1.1,    2.1,   0.00,   0.00,  999.3,   69.4, -999.0
08-04-2022, 00:16:17,    242,    1.1,    2.2,   0.00,   0.00,  999.3,   69.3, -999.0
08-04-2022, 00:16:27,    245,    0.7,    2.1,   0.00,   0.00,  999.3,   69.4, -999.0
08-04-2022, 00:16:37,    242,    1.4,    2.1,   0.00,   0.00,  999.3,   69.4, -999.0
08-04-2022, 00:16:47,    301,    1.0,    2.2,   0.00,   0.00,  999.3,   69.4, -999.0
08-04-2022, 00:16:57,    300,    0.1,    2.1,   0.00,   0.00,  999.2,   69.2, -999.0
08-04-2022, 00:17:07,    234,    0.0,    2.1,   0.00,   0.00,  999.2,   69.2, -999.0
08-04-2022, 00:17:17,    277,    1.1,    2.1,   0.00,   0.00,  999.3,   69.4, -999.0
08-04-2022, 00:17:27,    291,    0.3,    2.1,   0.00,   0.00,  999.3,   69.5, -999.0
08-04-2022, 00:17:37,    247,    0.3,    2.0,   0.00,   0.00,  999.2,   69.4, -999.0
08-04-2022, 00:17:47,    248,    0.1,    2.1,   0.00,   0.00,  999.2,   69.3, -999.0
08-04-2022, 00:17:57,    215,    0.0,    2.0,   0.00,   0.00,  999.2,   69.1, -999.0
08-04-2022, 00:18:06,    215,    0.0,    2.0,   0.00,   0.00,  999.1,   69.1, -999.0
08-04-2022, 00:18:17,    215,    0.0,    2.1,   0.00,   0.00,  999.1,   69.2, -999.0
08-04-2022, 00:18:27,    220,    0.2,    2.1,   0.00,   0.00,  999.3,   69.4, -999.0
08-04-2022, 00:18:36,    255,    1.0,    2.1,   0.00,   0.00,  999.3,   69.6, -999.0
08-04-2022, 00:18:47,    254,    0.6,    2.1,   0.00,   0.00,  999.3,   69.6, -999.0
08-04-2022, 00:18:57,    257,    0.5,    2.1,   0.00,   0.00,  999.2,   69.6, -999.0
08-04-2022, 00:19:06,    248,    1.1,    2.0,   0.00,   0.00,  999.3,   69.6, -999.0
08-04-2022, 00:19:16,    228,    1.9,    2.1,   0.00,   0.00,  999.3,   69.7, -999.0
08-04-2022, 00:19:27,    231,    0.6,    2.1,   0.00,   0.00,  999.3,   69.8, -999.0
08-04-2022, 00:19:36,    267,    0.3,    2.1,   0.00,   0.00,  999.2,   69.5, -999.0
08-04-2022, 00:19:46,    222,    1.9,    2.2,   0.00,   0.00,  999.2,   69.8, -999.0
08-04-2022, 00:19:56,    242,    1.2,    2.1,   0.00,   0.00,  999.3,   69.9, -999.0
08-04-2022, 00:20:06,    241,    0.4,    2.1,   0.00,   0.00,  999.2,   69.9, -999.0
08-04-2022, 00:20:16,    201,    0.0,    2.1,   0.00,   0.00,  999.1,   69.7, -999.0
08-04-2022, 00:20:26,    257,    0.5,    2.1,   0.00,   0.00,  999.2,   69.8, -999.0
08-04-2022, 00:20:36,    255,    0.0,    2.1,   0.00,   0.00,  999.2,   69.6, -999.0
08-04-2022, 00:20:46,    242,    0.5,    2.1,   0.00,   0.00,  999.2,   69.8, -999.0
08-04-2022, 00:20:56,    239,    1.2,    2.0,   0.00,   0.00,  999.3,   69.9, -999.0
08-04-2022, 00:21:06,    265,    1.0,    2.1,   0.00,   0.00,  999.2,   70.0, -999.0
08-04-2022, 00:21:16,    236,    0.4,    2.1,   0.00,   0.00,  999.2,   69.8, -999.0
08-04-2022, 00:21:26,    235,    1.6,    2.2,   0.00,   0.00,  999.2,   69.9, -999.0
08-04-2022, 00:21:36,    241,    1.4,    2.2,   0.00,   0.00,  999.3,   69.9, -999.0
08-04-2022, 00:21:45,    241,    0.4,    2.1,   0.00,   0.00,  999.2,   69.7, -999.0
08-04-2022, 00:21:56,    241,    0.0,    2.0,   0.00,   0.00,  999.1,   69.6, -999.0
08-04-2022, 00:22:06,    232,    1.2,    2.1,   0.00,   0.00,  999.2,   70.0, -999.0
08-04-2022, 00:22:15,    230,    0.9,    2.1,   0.00,   0.00,  999.2,   70.1, -999.0
08-04-2022, 00:22:25,    199,    0.4,    2.1,   0.00,   0.00,  999.2,   70.0, -999.0
08-04-2022, 00:22:36,    250,    0.9,    2.1,   0.00,   0.00,  999.2,   70.1, -999.0
08-04-2022, 00:22:45,    256,    1.1,    2.1,   0.00,   0.00,  999.2,   70.1, -999.0
08-04-2022, 00:22:55,    257,    0.5,    2.1,   0.00,   0.00,  999.2,   70.1, -999.0
08-04-2022, 00:23:05,    256,    0.0,    2.0,   0.00,   0.00,  999.1,   69.6, -999.0
08-04-2022, 00:23:15,    254,    0.2,    2.0,   0.00,   0.00,  999.2,   69.7, -999.0
08-04-2022, 00:23:25,    196,    0.4,    2.0,   0.00,   0.00,  999.2,   69.8, -999.0
08-04-2022, 00:23:35,    196,    0.2,    2.1,   0.00,   0.00,  999.2,   70.0, -999.0
08-04-2022, 00:23:45,    196,    0.0,    2.0,   0.00,   0.00,  999.1,   69.7, -999.0
08-04-2022, 00:23:55,    196,    0.0,    2.0,   0.00,   0.00,  999.1,   69.6, -999.0
08-04-2022, 00:24:05,    196,    0.2,    2.0,   0.00,   0.00,  999.2,   70.0, -999.0
08-04-2022, 00:24:15,    196,    0.0,    2.0,   0.00,   0.00,  999.2,   69.9, -999.0
08-04-2022, 00:24:25,    197,    0.6,    2.0,   0.00,   0.00,  999.3,   70.1, -999.0
08-04-2022, 00:24:35,    197,    0.6,    2.0,   0.00,   0.00,  999.2,   70.3, -999.0
08-04-2022, 00:24:45,    197,    0.0,    2.1,   0.00,   0.00,  999.2,   69.9, -999.0
08-04-2022, 00:24:55,    255,    1.9,    2.0,   0.00,   0.00,  999.2,   70.4, -999.0
08-04-2022, 00:25:05,    212,    2.3,    2.1,   0.00,   0.00,  999.3,   70.4, -999.0
08-04-2022, 00:25:15,    237,    1.2,    2.2,   0.00,   0.00,  999.3,   70.4, -999.0
08-04-2022, 00:25:24,    244,    0.6,    2.1,   0.00,   0.00,  999.3,   70.4, -999.0
08-04-2022, 00:25:35,    244,    0.2,    2.0,   0.00,   0.00,  999.2,   70.1, -999.0
08-04-2022, 00:25:45,    200,    0.3,    2.0,   0.00,   0.00,  999.2,   70.3, -999.0
08-04-2022, 00:25:54,    200,    0.3,    2.1,   0.00,   0.00,  999.2,   70.4, -999.0
08-04-2022, 00:26:04,    200,    0.0,    2.0,   0.00,   0.00,  999.2,   70.2, -999.0
08-04-2022, 00:26:15,    223,    1.5,    2.1,   0.00,   0.00,  999.2,   70.5, -999.0
08-04-2022, 00:26:24,    217,    1.0,    2.0,   0.00,   0.00,  999.2,   70.4, -999.0
08-04-2022, 00:26:34,    244,    0.3,    2.0,   0.00,   0.00,  999.2,   70.3, -999.0
08-04-2022, 00:26:44,    249,    0.6,    2.0,   0.00,   0.00,  999.3,   70.5, -999.0
08-04-2022, 00:26:54,    254,    0.7,    2.1,   0.00,   0.00,  999.2,   70.5, -999.0
08-04-2022, 00:27:04,    263,    0.2,    2.0,   0.00,   0.00,  999.2,   70.2, -999.0
08-04-2022, 00:27:14,    268,    0.8,    2.1,   0.00,   0.00,  999.3,   70.5, -999.0
08-04-2022, 00:27:24,    252,    0.8,    2.0,   0.00,   0.00,  999.2,   70.5, -999.0
08-04-2022, 00:27:34,    247,    0.0,    1.9,   0.00,   0.00,  999.2,   70.5, -999.0
08-04-2022, 00:27:44,    244,    0.0,    2.0,   0.00,   0.00,  999.1,   70.5, -999.0
08-04-2022, 00:27:54,    251,    0.9,    2.0,   0.00,   0.00,  999.2,   70.8, -999.0
08-04-2022, 00:28:04,    263,    1.3,    1.9,   0.00,   0.00,  999.2,   70.8, -999.0
08-04-2022, 00:28:14,    242,    1.0,    2.0,   0.00,   0.00,  999.2,   70.7, -999.0
08-04-2022, 00:28:24,    242,    0.4,    1.9,   0.00,   0.00,  999.2,   70.6, -999.0
08-04-2022, 00:28:33,    241,    0.3,    2.0,   0.00,   0.00,  999.2,   70.6, -999.0
08-04-2022, 00:28:44,    246,    1.2,    1.9,   0.00,   0.00,  999.3,   70.9, -999.0
08-04-2022, 00:28:54,    244,    0.1,    2.0,   0.00,   0.00,  999.2,   70.7, -999.0
08-04-2022, 00:29:03,    247,    1.3,    2.0,   0.00,   0.00,  999.2,   70.8, -999.0
08-04-2022, 00:29:13,    236,    2.3,    2.0,   0.00,   0.00,  999.3,   71.0, -999.0
08-04-2022, 00:29:24,    235,    1.0,    2.0,   0.00,   0.00,  999.2,   70.9, -999.0
08-04-2022, 00:29:33,    244,    2.7,    2.0,   0.00,   0.00,  999.3,   70.9, -999.0
08-04-2022, 00:29:43,    243,    2.0,    2.1,   0.00,   0.00,  999.2,   70.9, -999.0
08-04-2022, 00:29:54,    235,    0.4,    2.0,   0.00,   0.00,  999.2,   70.8, -999.0
08-04-2022, 00:30:03,    236,    0.2,    2.0,   0.00,   0.00,  999.2,   70.8, -999.0
08-04-2022, 00:30:13,    235,    1.6,    2.0,   0.00,   0.00,  999.2,   71.0, -999.0
08-04-2022, 00:30:23,    235,    0.6,    2.0,   0.00,   0.00,  999.2,   71.1, -999.0
08-04-2022, 00:30:33,    235,    0.1,    1.9,   0.00,   0.00,  999.1,   70.9, -999.0
08-04-2022, 00:30:43,    235,    0.1,    2.0,   0.00,   0.00,  999.1,   71.0, -999.0
08-04-2022, 00:30:53,    235,    0.0,    2.0,   0.00,   0.00,  999.1,   70.8, -999.0
08-04-2022, 00:31:03,    234,    0.1,    1.9,   0.00,   0.00,  999.1,   71.0, -999.0
08-04-2022, 00:31:13,    250,    0.2,    2.0,   0.00,   0.00,  999.1,   70.9, -999.0
08-04-2022, 00:31:23,    250,    0.0,    2.0,   0.00,   0.00,  999.0,   70.8, -999.0
08-04-2022, 00:31:33,    250,    0.0,    2.0,   0.00,   0.00,  999.1,   70.7, -999.0
08-04-2022, 00:31:43,    269,    3.2,    1.9,   0.00,   0.00,  999.2,   71.1, -999.0
08-04-2022, 00:31:53,    258,    1.0,    2.0,   0.00,   0.00,  999.2,   71.2, -999.0
08-04-2022, 00:32:03,    258,    0.0,    2.0,   0.00,   0.00,  999.1,   70.8, -999.0
08-04-2022, 00:32:12,    235,    0.3,    2.0,   0.00,   0.00,  999.2,   71.3, -999.0
08-04-2022, 00:32:23,    237,    1.4,    2.1,   0.00,   0.00,  999.2,   71.4, -999.0
08-04-2022, 00:32:33,    249,    1.0,    2.0,   0.00,   0.00,  999.2,   71.4, -999.0
08-04-2022, 00:32:42,    256,    1.0,    2.0,   0.00,   0.00,  999.2,   71.4, -999.0
08-04-2022, 00:32:52,    244,    2.9,    2.0,   0.00,   0.00,  999.3,   71.4, -999.0
08-04-2022, 00:33:03,    246,    2.9,    2.0,   0.00,   0.00,  999.2,   71.5, -999.0
08-04-2022, 00:33:12,    256,    0.9,    2.0,   0.00,   0.00,  999.2,   71.5, -999.0
08-04-2022, 00:33:22,    254,    0.5,    2.0,   0.00,   0.00,  999.2,   71.4, -999.0
08-04-2022, 00:33:32,    253,    0.0,    1.9,   0.00,   0.00,  999.1,   71.3, -999.0
08-04-2022, 00:33:42,    253,    0.1,    1.9,   0.00,   0.00,  999.1,   71.4, -999.0
08-04-2022, 00:33:52,    255,    0.0,    1.8,   0.00,   0.00,  999.1,   71.3, -999.0
08-04-2022, 00:34:02,    256,    1.2,    2.0,   0.00,   0.00,  999.2,   71.6, -999.0
08-04-2022, 00:34:12,    271,    0.9,    2.0,   0.00,   0.00,  999.2,   71.5, -999.0
08-04-2022, 00:34:22,    247,    0.3,    1.9,   0.00,   0.00,  999.2,   71.5, -999.0
08-04-2022, 00:34:32,    245,    2.6,    2.0,   0.00,   0.00,  999.2,   71.6, -999.0
08-04-2022, 00:34:42,    248,    2.4,    1.9,   0.00,   0.00,  999.3,   71.7, -999.0
08-04-2022, 00:34:52,    249,    0.8,    2.0,   0.00,   0.00,  999.2,   71.7, -999.0
08-04-2022, 00:35:02,    248,    0.0,    1.9,   0.00,   0.00,  999.1,   71.4, -999.0
08-04-2022, 00:35:12,    239,    0.3,    1.9,   0.00,   0.00,  999.2,   71.7, -999.0
08-04-2022, 00:35:21,    242,    0.5,    1.9,   0.00,   0.00,  999.2,   71.6, -999.0
08-04-2022, 00:35:32,    238,    0.6,    1.9,   0.00,   0.00,  999.2,   71.9, -999.0
08-04-2022, 00:35:42,    238,    0.1,    1.9,   0.00,   0.00,  999.2,   71.6, -999.0
08-04-2022, 00:35:51,    238,    0.0,    1.8,   0.00,   0.00,  999.1,   71.7, -999.0
08-04-2022, 00:36:02,    239,    0.2,    1.9,   0.00,   0.00,  999.2,   71.9, -999.0
08-04-2022, 00:36:12,    232,    0.0,    1.9,   0.00,   0.00,  999.1,   71.6, -999.0
08-04-2022, 00:36:21,    215,    0.7,    1.9,   0.00,   0.00,  999.2,   71.8, -999.0
08-04-2022, 00:36:31,    245,    0.7,    1.9,   0.00,   0.00,  999.2,   72.0, -999.0
08-04-2022, 00:36:42,    264,    1.6,    2.0,   0.00,   0.00,  999.2,   72.2, -999.0
08-04-2022, 00:36:51,    262,    1.1,    2.0,   0.00,   0.00,  999.2,   72.2, -999.0
08-04-2022, 00:37:01,    262,    0.0,    1.8,   0.00,   0.00,  999.1,   71.8, -999.0
08-04-2022, 00:37:11,    243,    1.4,    1.9,   0.00,   0.00,  999.2,   72.0, -999.0
08-04-2022, 00:37:21,    186,    1.5,    2.0,   0.00,   0.00,  999.2,   72.3, -999.0
08-04-2022, 00:37:31,    186,    0.3,    1.9,   0.00,   0.00,  999.1,   72.0, -999.0
08-04-2022, 00:37:41,    186,    0.1,    2.0,   0.00,   0.00,  999.1,   72.2, -999.0
08-04-2022, 00:37:51,    187,    0.1,    1.9,   0.00,   0.00,  999.1,   72.1, -999.0
08-04-2022, 00:38:01,    186,    0.0,    1.9,   0.00,   0.00,  999.0,   72.1, -999.0
08-04-2022, 00:38:11,    190,    0.2,    1.9,   0.00,   0.00,  999.1,   72.1, -999.0
08-04-2022, 00:38:21,    190,    0.3,    2.0,   0.00,   0.00,  999.2,   72.4, -999.0
08-04-2022, 00:38:31,    189,    0.0,    1.8,   0.00,   0.00,  999.1,   72.1, -999.0
08-04-2022, 00:38:41,    204,    1.4,    1.9,   0.00,   0.00,  999.2,   72.4, -999.0
08-04-2022, 00:38:51,    204,    0.7,    1.9,   0.00,   0.00,  999.2,   72.6, -999.0
08-04-2022, 00:39:00,    208,    1.0,    1.9,   0.00,   0.00,  999.2,   72.5, -999.0
08-04-2022, 00:39:11,    208,    0.2,    1.9,   0.00,   0.00,  999.1,   72.5, -999.0
08-04-2022, 00:39:21,    208,    0.0,    1.9,   0.00,   0.00,  999.1,   72.4, -999.0
08-04-2022, 00:39:30,    246,    1.7,    1.9,   0.00,   0.00,  999.2,   72.6, -999.0
08-04-2022, 00:39:40,    256,    1.7,    2.0,   0.00,   0.00,  999.2,   72.8, -999.0
08-04-2022, 00:39:51,    272,    1.1,    2.0,   0.00,   0.00,  999.2,   72.7, -999.0
08-04-2022, 00:40:00,    271,    0.0,    1.9,   0.00,   0.00,  999.0,   72.6, -999.0
08-04-2022, 00:40:10,    267,    0.0,    1.9,   0.00,   0.00,  999.1,   72.5, -999.0
08-04-2022, 00:40:20,    267,    0.0,    1.9,   0.00,   0.00,  999.1,   72.3, -999.0
08-04-2022, 00:40:30,    226,    0.6,    1.9,   0.00,   0.00,  999.2,   72.8, -999.0
08-04-2022, 00:40:40,    228,    0.3,    1.9,   0.00,   0.00,  999.1,   72.6, -999.0
08-04-2022, 00:40:50,    223,    0.5,    1.9,   0.00,   0.00,  999.2,   72.7, -999.0
08-04-2022, 00:41:00,    267,    0.5,    1.8,   0.00,   0.00,  999.1,   72.8, -999.0
08-04-2022, 00:41:10,    267,    0.3,    1.9,   0.00,   0.00,  999.1,   72.7, -999.0
08-04-2022, 00:41:20,    199,    0.7,    1.9,   0.00,   0.00,  999.2,   73.0, -999.0
08-04-2022, 00:41:30,    220,    1.7,    2.0,   0.00,   0.00,  999.2,   73.0, -999.0
08-04-2022, 00:41:40,    255,    1.7,    1.9,   0.00,   0.00,  999.2,   73.1, -999.0
08-04-2022, 00:41:50,    258,    1.1,    1.9,   0.00,   0.00,  999.2,   73.2, -999.0
08-04-2022, 00:42:00,    257,    0.4,    1.9,   0.00,   0.00,  999.2,   73.1, -999.0
08-04-2022, 00:42:10,    257,    0.0,    1.8,   0.00,   0.00,  999.0,   72.8, -999.0
08-04-2022, 00:42:20,    257,    0.0,    1.8,   0.00,   0.00,  999.1,   72.8, -999.0
08-04-2022, 00:42:30,    257,    0.0,    1.9,   0.00,   0.00,  999.0,   73.0, -999.0
08-04-2022, 00:42:39,    257,    0.0,    1.7,   0.00,   0.00,  999.1,   73.0, -999.0
08-04-2022, 00:42:50,    258,    0.0,    1.8,   0.00,   0.00,  999.0,   72.9, -999.0
08-04-2022, 00:43:00,    282,    0.8,    1.9,   0.00,   0.00,  999.1,   73.3, -999.0
08-04-2022, 00:43:09,    277,    1.5,    1.9,   0.00,   0.00,  999.2,   73.3, -999.0
08-04-2022, 00:43:19,    276,    0.2,    1.8,   0.00,   0.00,  999.1,   73.2, -999.0
08-04-2022, 00:43:30,    273,    0.0,    1.8,   0.00,   0.00,  999.0,   73.1, -999.0
08-04-2022, 00:43:39,    273,    0.1,    1.8,   0.00,   0.00,  999.1,   73.3, -999.0
08-04-2022, 00:43:49,    273,    0.1,    1.8,   0.00,   0.00,  999.1,   73.3, -999.0
08-04-2022, 00:43:59,    274,    0.0,    1.9,   0.00,   0.00,  999.0,   73.2, -999.0
08-04-2022, 00:44:09,    273,    0.0,    1.8,   0.00,   0.00,  999.0,   73.2, -999.0
08-04-2022, 00:44:19,    235,    1.0,    1.9,   0.00,   0.00,  999.1,   73.3, -999.0
08-04-2022, 00:44:29,    240,    2.5,    1.9,   0.00,   0.00,  999.2,   73.7, -999.0
08-04-2022, 00:44:39,    254,    2.0,    2.0,   0.00,   0.00,  999.2,   73.7, -999.0
08-04-2022, 00:44:49,    240,    1.1,    1.9,   0.00,   0.00,  999.2,   73.8, -999.0
08-04-2022, 00:44:59,    240,    0.5,    1.9,   0.00,   0.00,  999.2,   73.7, -999.0
08-04-2022, 00:45:09,    236,    2.6,    2.0,   0.00,   0.00,  999.2,   73.8, -999.0
08-04-2022, 00:45:19,    249,    3.2,    2.0,   0.00,   0.00,  999.2,   74.0, -999.0
08-04-2022, 00:45:29,    235,    1.3,    2.0,   0.00,   0.00,  999.1,   73.9, -999.0
08-04-2022, 00:45:39,    235,    1.2,    2.0,   0.00,   0.00,  999.2,   73.9, -999.0
08-04-2022, 00:45:48,    237,    0.4,    1.9,   0.00,   0.00,  999.1,   74.0, -999.0
08-04-2022, 00:45:59,    232,    0.6,    1.9,   0.00,   0.00,  999.1,   74.0, -999.0
08-04-2022, 00:46:09,    232,    0.4,    1.9,   0.00,   0.00,  999.1,   73.9, -999.0
08-04-2022, 00:46:18,    186,    2.9,    2.0,   0.00,   0.00,  999.2,   74.0, -999.0
08-04-2022, 00:46:29,    186,    1.2,    2.0,   0.00,   0.00,  999.2,   74.2, -999.0
08-04-2022, 00:46:39,    204,    0.4,    2.0,   0.00,   0.00,  999.1,   74.1, -999.0